Penn Yan, NY

1:34 PM EDT on June 22, 2017 (GMT -0400)
Penn Yan

Weather History for KPEO - March, 2013

Change the Weather History Date:

Saturday, March 16, 2013

  Actual Average (KITH) Record (KITH)
Temperature  
Mean Temperature 26 °F -  
Max Temperature 30 °F 41 °F 79 °F (1990)
Min Temperature 21 °F 22 °F -1 °F (1993)
Degree Days  
Heating Degree Days 40    
Moisture  
Dew Point 17 °F    
Average Humidity 69    
Maximum Humidity 81    
Minimum Humidity 58    
Precipitation  
Precipitation 0.00 in - - ()
Sea Level Pressure  
Sea Level Pressure 29.87 in    
Wind  
Wind Speed 4 mph (NNW)    
Max Wind Speed 7 mph    
Max Gust Speed 18 mph    
Visibility 8 miles    
Events Snow    
Averages and records for this station are not official NWS values.
T = Trace of Precipitation, MM = Missing Value Source: NWS Daily Summary

Daily Weather History Graph

Daily Weather History Graph

Search for Another Location

Airport or City:

Trip Planner

Search our weather history database for the weather conditions in past years. The results will help you decide how hot, cold, wet, or windy it might be!

Date:

Astronomy

Mar. 16, 2013 Rise Set
Actual Time 7:18 AM EDT 7:16 PM EDT
Civil Twilight 6:49 AM EDT 7:44 PM EDT
Nautical Twilight 6:17 AM EDT 8:17 PM EDT
Astronomical Twilight 5:43 AM EDT 8:50 PM EDT
Moon 9:39 AM EDT (3/16) No Moon Set
Length of Visible Light 12h 54m
Length of Day
11h 58m
Waxing Crescent, 23% of the Moon is Illuminated
Mar 16
Waxing Crescent
Mar 19
First Quarter
Mar 27
Full
Apr 3
Last Quarter
Apr 10
New

Hourly Weather History & Observations

Time (EDT) Temp. Windchill Dew Point Humidity Pressure Visibility Wind Dir Wind Speed Gust Speed Precip Events Conditions
12:53 AM 30.0 °F 23.2 °F 19.9 °F 66% 29.88 in 10.0 mi NNW 6.9 mph - N/A   Overcast
1:53 AM 28.9 °F 22.8 °F 17.1 °F 61% 29.88 in 10.0 mi NW 5.8 mph 18.4 mph N/A   Overcast
2:53 AM 28.9 °F 21.9 °F 16.0 °F 58% 29.89 in 10.0 mi NNW 6.9 mph - N/A   Overcast
3:53 AM 28.0 °F 22.8 °F 16.0 °F 61% 29.87 in 10.0 mi NW 4.6 mph - N/A   Overcast
4:53 AM 27.0 °F 23.0 °F 17.1 °F 66% 29.85 in 10.0 mi NNW 3.5 mph - N/A   Mostly Cloudy
5:53 AM 27.0 °F 23.0 °F 16.0 °F 63% 29.85 in 10.0 mi North 3.5 mph - N/A   Overcast
6:28 AM 26.6 °F 22.6 °F 15.8 °F 64% 29.83 in 10.0 mi Variable 3.5 mph - N/A   Overcast
6:53 AM 26.1 °F 21.9 °F 15.1 °F 63% 29.88 in 10.0 mi Variable 3.5 mph - N/A   Overcast
7:53 AM 26.1 °F 20.5 °F 14.0 °F 60% 29.87 in 10.0 mi Variable 4.6 mph - N/A   Overcast
8:53 AM 26.1 °F 19.4 °F 17.1 °F 69% 29.87 in 6.0 mi NE 5.8 mph - 0.00 in Snow Light Snow
9:48 AM 24.8 °F 20.5 °F 19.4 °F 80% 29.84 in 4.0 mi Variable 3.5 mph - 0.00 in Snow Light Snow
9:53 AM 26.1 °F - 19.0 °F 75% 29.87 in 4.0 mi Calm Calm - 0.00 in Snow Light Snow
10:07 AM 24.8 °F 20.5 °F 19.4 °F 80% 29.83 in 5.0 mi Variable 3.5 mph - 0.00 in Snow Light Snow
10:23 AM 26.6 °F - 17.6 °F 69% 29.82 in 4.0 mi Calm Calm - 0.00 in Snow Light Snow
10:53 AM 27.0 °F - 18.0 °F 69% 29.85 in 6.0 mi Calm Calm - 0.00 in Snow Light Snow
11:53 AM 27.0 °F - 18.0 °F 69% 29.84 in 7.0 mi Calm Calm - 0.00 in Snow Light Snow
12:30 PM 26.6 °F - 17.6 °F 69% 29.82 in 6.0 mi Calm Calm - 0.00 in Snow Light Snow
12:46 PM 28.4 °F 24.6 °F 17.6 °F 64% 29.81 in 9.0 mi NNE 3.5 mph - 0.00 in   Overcast
12:53 PM 28.0 °F - 18.0 °F 66% 29.85 in 10.0 mi Calm Calm - 0.00 in   Overcast
1:53 PM 28.0 °F - 18.0 °F 66% 29.83 in 10.0 mi Calm Calm - N/A   Overcast
2:53 PM 28.9 °F 22.8 °F 18.0 °F 64% 29.83 in 10.0 mi Variable 5.8 mph - N/A   Overcast
3:23 PM 28.4 °F 21.2 °F 17.6 °F 64% 29.80 in 10.0 mi North 6.9 mph - N/A   Overcast
3:53 PM 27.0 °F 23.0 °F 16.0 °F 63% 29.83 in 9.0 mi Variable 3.5 mph - 0.00 in Snow Light Snow
4:05 PM 26.6 °F 22.6 °F 15.8 °F 64% 29.80 in 9.0 mi Variable 3.5 mph - 0.00 in Snow Light Snow
4:53 PM 26.1 °F 18.4 °F 18.0 °F 71% 29.86 in 4.0 mi Variable 6.9 mph - 0.00 in Snow Light Snow
5:53 PM 26.1 °F 19.4 °F 19.0 °F 75% 29.88 in 8.0 mi Variable 5.8 mph - 0.00 in   Overcast
6:05 PM 26.6 °F - 19.4 °F 74% 29.84 in 7.0 mi Calm Calm - 0.00 in Snow Light Snow
6:53 PM 25.0 °F 18.1 °F 19.0 °F 78% 29.89 in 5.0 mi North 5.8 mph - 0.00 in Snow Light Snow
7:06 PM 24.8 °F 20.5 °F 19.4 °F 80% 29.86 in 5.0 mi North 3.5 mph - 0.00 in Snow Light Snow
7:49 PM 24.8 °F 19.1 °F 17.6 °F 74% 29.88 in 10.0 mi North 4.6 mph - 0.00 in   Overcast
7:53 PM 24.1 °F 19.7 °F 18.0 °F 77% 29.92 in 10.0 mi North 3.5 mph - 0.00 in   Overcast
8:53 PM 24.1 °F - 17.1 °F 75% 29.95 in 10.0 mi Calm Calm - N/A   Overcast
9:53 PM 24.1 °F 19.7 °F 17.1 °F 75% 29.97 in 10.0 mi West 3.5 mph - N/A   Overcast
10:53 PM 21.9 °F 17.2 °F 16.0 °F 78% 29.98 in 10.0 mi West 3.5 mph - N/A   Clear
11:53 PM 21.0 °F 14.6 °F 16.0 °F 81% 29.98 in 10.0 mi West 4.6 mph - N/A   Clear